Вернуться в каталог

TIANLIAN-2 06

АктивенСвязьGEO
NORAD 100140·PAYLOAD·🇨🇳 China

Запущен Jul 23, 2026 с Xichang Satellite Launch Center

Loading…

TLE

СвежийSource: Space-Track

Эпоха: Sep 14, 2026, 07:34 UTC

1 A0140U 26169A   26257.31570114  .00000097  00000-0  00000-0 0  9999
2 A0140   2.9063 298.2800 0003674 356.1778   3.5030  1.00275001   549

Отслеживайте TIANLIAN-2 06 в реальном времени с AllMySat

Download on the App Store